Location: Le Hiès Ruisseau
(43.3000°N, 0.4500°W)
Time: 12:27:06
(UTC+00:00)

YAOGAN 3 - Pass Details

Date: 28 January 2023
Orbit: 621 x 622 km, 97.9° (Epoch: 20 March)

Event Time Altitude Azimuth Distance (km) Brightness Sun altitude
Rises 18:24:10 0° 162° (SSE) 2,892 7.9 -14.0°
Reaches altitude 10° 18:26:20 10° 162° (SSE) 1,990 7.1 -14.4°
Maximum altitude 18:30:40 80° 77° (ENE) 640 4.5 -15.1°
Drops below altitude 10° 18:35:02 10° 349° (N) 2,007 7.2 -15.9°
Sets 18:37:15 0° 349° (N) 2,918 8.0 -16.3°
